Terminal Aerodrome Forecast
Issued by NWS

Home | Current Version | Previous Version | Text Only | Print | Product List | Glossary On
Versions: 1 2 3 4 5 6 7 8 9 10 11 12 13 14 15 16 17 18 19 20 21 22 23 24 25 26 27
000
FTUS41 KRLX 050553
TAFCKB
TAF
KCKB 050553Z 0506/0606 13004KT 6SM BR BKN200
     FM050800 13004KT 5SM BR BKN200
     FM051300 VRB03KT 6SM BR BKN200
     FM051400 VRB03KT P6SM BKN200
     FM051800 12007KT P6SM BKN200
     FM052200 00000KT P6SM BKN050
     FM060200 00000KT P6SM SCT080=

USA.gov is the U.S. government's official web portal to all federal, state and local government web resources and services.